Theta_e
303 295 292 294 295 296 296 294 292 296 300 298 297 297 299 302 302 301 303 305 306 306 309 309 311 311 310 317 343 345 340 333 333 345 332 343 340 338 338 336 339 334 333 331
300 294 299 301 299 297 296 293 292 296 300 298 297 296 300 302 302 304 305 305 306 306 308 310 309 309 310 341 343 347 346 343 342 342 338 342 340 336 336 336 337 334 334 333
295 299 303 301 298 296 295 293 293 293 298 299 297 294 297 303 304 305 306 305 306 306 308 309 310 309 343 348 345 346 343 339 341 339 336 335 335 337 333 335 335 332 333 334
298 303 302 299 297 298 293 298 297 296 294 288 296 285 294 299 302 305 305 303 306 309 311 311 325 339 344 347 346 344 342 341 340 337 334 331 329 326 328 330 330 330 333 333
296 299 299 297 297 300 295 300 298 296 292 291 293 287 291 298 299 302 303 307 307 309 312 318 332 333 346 345 345 341 338 337 338 336 333 330 330 330 327 329 327 328 330 330
300 305 302 299 302 302 301 298 296 295 290 284 290 290 289 293 299 302 305 308 308 310 314 316 317 319 320 338 340 345 341 335 333 331 332 330 330 331 329 327 328 329 331 333
298 299 302 304 299 300 298 290 283 284 284 283 292 290 291 298 304 305 307 307 307 311 313 315 315 315 319 323 330 342 343 339 336 331 330 328 322 324 325 328 328 331 332 332
291 289 299 303 299 294 292 290 285 280 281 284 295 289 293 302 308 309 310 307 310 310 313 315 317 321 327 329 330 331 339 337 337 332 330 331 331 333 334 336 329 334 339 337
291 292 303 303 304 301 294 290 295 290 292 287 290 293 301 303 305 306 306 309 309 310 313 317 321 323 325 327 328 331 331 333 338 341 339 337 336 335 336 339 337 335 335 330
298 290 300 302 304 303 298 299 290 291 283 281 288 292 294 301 304 304 307 307 308 311 313 318 321 324 325 322 322 323 325 331 332 333 333 336 335 336 336 332 328 329 325 320
298 295 295 301 297 294 295 294 294 293 290 283 284 290 303 302 305 305 305 306 306 307 311 314 317 319 321 321 320 320 320 324 325 326 326 326 331 330 330 323 321 326 321 319
299 295 290 293 301 304 302 295 295 286 287 291 291 289 306 305 307 308 306 309 311 314 312 311 312 315 316 316 317 316 316 320 321 322 321 322 322 323 323 323 325 327 329 330
299 293 288 291 296 301 297 297 297 296 296 291 289 289 307 307 305 307 306 310 311 313 314 311 311 312 314 313 315 314 314 313 317 322 320 320 320 321 320 322 323 324 324 324
305 297 293 288 293 297 296 299 299 294 288 292 292 295 301 303 302 303 304 305 308 308 313 313 310 312 313 312 311 311 310 311 311 314 313 311 312 316 315 316 316 315 316 315
302 294 296 297 296 297 297 296 297 296 296 291 295 296 301 302 301 303 304 306 308 307 308 312 310 309 309 310 310 310 309 309 309 309 308 308 309 309 309 309 310 312 312 313
301 292 295 293 298 297 294 297 297 298 299 298 296 297 305 307 306 304 304 306 306 308 309 309 309 309 308 308 308 308 308 308 308 307 306 308 307 307 307 308 307 308 309 310
297 295 292 289 296 295 289 293 295 298 301 300 293 297 304 303 303 301 303 305 305 305 306 306 306 307 307 306 306 305 306 307 307 307 308 308 307 306 305 306 305 306 306 306
294 291 292 288 293 281 293 299 300 299 301 303 302 301 304 303 302 303 304 303 304 305 305 304 305 304 305 305 306 306 307 307 307 306 306 306 305 304 303 303 302 302 303 303
297 295 287 284 283 291 296 298 298 297 295 302 299 300 302 302 302 299 304 304 303 303 303 304 304 304 304 305 306 305 305 305 305 305 304 304 304 302 302 301 301 301 301 301
297 295 289 286 280 280 293 300 303 303 290 302 302 300 300 300 292 295 302 303 303 303 302 302 303 303 304 306 306 303 302 301 301 303 303 303 302 301 300 300 300 300 299 299
288 289 285 286 284 290 300 302 303 287 291 301 301 300 299 297 298 301 305 304 303 303 303 303 302 301 302 301 300 298 299 298 301 302 302 301 300 299 297 296 296 296 295 295
287 284 282 286 282 282 305 302 295 298 302 303 300 299 298 299 301 301 301 300 301 300 300 300 299 299 298 299 298 297 297 299 300 300 298 295 294 296 296 292 292 292 292 292
285 292 288 290 289 300 303 301 304 302 300 301 300 299 300 299 298 299 298 298 299 297 296 297 296 295 297 297 297 294 293 295 295 294 293 292 292 292 292 290 289 290 290 290
297 299 292 294 299 301 303 303 303 302 300 303 303 301 300 295 296 295 295 294 294 294 294 294 293 293 293 294 295 293 293 293 291 289 289 289 288 289 288 289 290 291 290 291
294 297 294 294 298 299 301 300 300 300 300 300 300 297 295 294 293 294 293 294 293 292 292 292 291 291 291 292 292 291 291 289 287 287 287 286 286 286 287 289 290 290 291 291
297 295 290 290 298 299 299 299 301 297 295 295 294 294 295 294 293 293 292 292 291 290 290 289 289 289 290 289 289 289 288 287 285 285 286 285 286 287 288 287 289 292 291 292
Wind_Speed
14 8 18 16 14 7 11 15 14 16 21 17 19 19 12 11 9 10 9 9 10 11 14 13 15 16 8 6 13 19 15 9 9 6 4 5 2 1 4 4 8 9 7 4
15 24 13 11 12 16 18 20 20 16 15 11 7 6 8 12 9 9 9 8 8 7 9 9 12 11 7 8 16 14 14 13 11 8 6 7 10 5 4 7 10 10 12 9
21 7 16 19 19 21 22 21 15 14 17 4 7 4 7 5 7 8 7 7 2 2 10 9 10 11 11 14 15 18 20 17 13 12 8 6 4 3 6 9 10 13 17 17
18 16 20 23 23 21 20 21 19 20 15 5 7 5 5 6 11 7 8 7 6 9 9 4 8 8 14 14 14 15 21 22 20 21 17 21 14 12 5 10 3 8 11 14
17 17 24 21 24 21 17 16 17 19 8 3 10 4 5 7 11 14 9 8 9 9 11 11 12 11 9 9 15 10 7 6 13 14 14 13 13 12 4 6 6 4 5 9
15 11 18 19 20 24 19 16 16 9 3 5 7 5 6 6 8 10 8 10 10 11 11 12 9 8 5 2 8 16 13 9 8 7 10 14 13 8 7 8 7 6 6 9
11 15 10 16 17 10 16 8 4 3 8 8 9 6 9 11 7 9 15 10 10 10 11 10 10 9 9 12 2 6 12 13 11 7 6 3 1 3 1 2 6 8 7 7
11 7 19 12 13 9 10 7 5 6 4 4 7 15 13 19 3 14 16 12 13 11 10 10 9 9 10 12 11 6 5 6 10 11 11 6 7 5 4 7 5 7 8 9
2 7 6 17 17 14 7 10 7 2 6 5 5 7 5 16 12 15 15 15 12 11 10 10 10 8 8 9 9 8 8 4 4 10 12 10 6 8 9 9 7 5 2 6
2 7 15 16 18 20 8 6 11 3 1 6 6 3 7 13 12 8 14 11 10 10 11 10 8 8 8 12 14 14 10 8 9 10 6 3 4 4 5 6 7 7 4 3
2 4 9 7 17 12 10 15 7 6 8 6 1 2 5 9 6 8 10 9 10 13 9 9 9 9 10 10 12 11 12 14 13 12 13 12 9 7 6 4 3 4 3 1
18 6 3 5 15 14 14 6 7 6 3 2 6 3 3 9 11 9 8 13 15 11 16 8 8 10 12 11 11 10 9 11 8 8 8 8 8 7 7 7 9 7 7 7
11 5 1 8 8 7 6 2 1 5 4 6 5 4 6 8 8 12 9 11 12 15 22 10 9 9 8 9 10 12 12 12 8 10 9 8 8 7 6 7 6 7 6 4
7 5 5 5 2 3 4 2 5 1 4 4 7 5 5 9 9 8 9 10 14 17 14 19 8 11 12 12 12 12 11 9 10 9 8 8 8 9 7 7 6 7 6 7
4 6 9 8 0 4 4 4 3 5 2 3 6 9 6 6 7 7 8 7 9 7 11 7 13 13 12 12 12 11 10 10 8 8 7 6 6 6 6 7 7 7 7 6
5 2 5 3 4 9 2 5 17 8 3 2 6 2 7 8 9 4 5 7 19 16 14 13 14 13 11 10 9 8 7 7 7 7 7 6 6 5 5 6 6 6 6 5
4 6 6 6 10 10 3 10 9 6 7 10 4 11 12 7 10 4 12 17 17 15 14 12 10 8 7 7 7 6 7 7 7 7 7 7 7 7 7 6 7 7 7 6
3 1 2 6 13 4 4 6 4 9 11 13 14 9 16 12 10 14 12 12 12 12 9 7 7 6 6 4 4 5 6 5 5 6 6 7 7 7 7 7 7 7 5 5
5 3 3 5 3 8 9 7 5 10 16 14 13 15 15 17 18 9 9 10 9 8 6 5 5 4 5 5 4 5 4 4 6 6 6 6 6 7 7 7 7 6 6 6
5 4 5 3 3 3 5 6 8 3 8 7 9 9 7 5 7 3 7 9 8 8 5 5 5 3 3 3 6 6 5 5 4 5 5 5 6 6 6 7 8 5 5 6
3 4 3 3 3 4 2 6 6 7 3 8 11 9 9 8 6 6 6 6 6 5 3 1 1 3 3 7 6 6 5 4 3 4 4 5 10 8 7 7 5 6 6 7
4 4 1 2 3 3 6 8 6 5 6 10 9 8 8 8 7 5 4 6 4 3 5 5 4 5 5 7 7 7 8 8 10 9 11 8 7 7 7 7 6 7 6 8
3 3 5 5 3 5 11 12 8 8 10 7 7 6 7 7 6 7 6 8 7 9 10 10 9 8 8 9 10 11 7 10 10 10 8 7 7 7 6 7 8 8 6 7
5 3 4 6 7 9 12 6 8 8 7 7 8 7 8 7 8 7 7 6 8 8 10 8 9 9 9 8 8 8 9 10 9 9 8 8 7 8 6 5 6 6 6 7
3 2 3 7 11 12 8 7 7 9 9 12 14 11 9 9 9 9 8 8 7 7 7 7 7 6 7 8 9 8 10 9 7 6 6 5 4 6 7 6 6 7 8 7
5 5 3 3 6 9 4 6 9 13 13 11 9 10 14 13 10 9 7 6 6 6 7 7 7 7 7 9 8 9 8 7 5 6 6 6 6 6 6 7 7 9 14 17
Wind_Direction
228 216 222 217 227 234 258 244 234 231 239 234 231 229 198 222 242 262 244 238 215 205 217 211 214 228 195 157 150 161 154 138 119 143 127 156 120 304 106 146 136 114 105 89
221 227 220 234 229 232 244 250 257 278 268 205 179 205 200 210 219 218 231 245 223 232 233 213 207 211 163 146 143 142 148 144 156 171 171 180 164 145 210 182 144 155 145 168
218 226 216 237 227 224 231 243 254 253 281 231 141 231 211 252 245 240 239 198 210 306 232 214 197 204 116 125 141 137 149 157 155 151 138 116 74 70 175 176 183 181 170 172
219 228 223 220 236 227 229 228 247 259 269 227 143 240 245 245 250 232 224 191 119 63 22 147 146 133 150 152 147 144 152 156 159 165 168 170 169 190 230 191 199 162 174 165
225 203 232 219 225 238 242 243 234 246 265 289 281 101 253 231 240 228 215 155 114 91 76 76 80 80 122 136 144 160 143 165 160 173 170 168 187 206 163 196 170 171 175 196
237 238 235 236 233 217 243 241 245 223 215 282 238 148 273 245 257 169 166 135 116 103 93 78 65 57 34 145 149 146 147 156 173 194 182 193 202 190 176 182 182 182 191 206
273 250 249 262 279 229 230 215 226 190 206 229 197 256 226 257 267 175 133 124 99 96 93 81 70 52 40 39 105 154 151 164 172 185 208 242 43 265 240 199 199 193 201 213
205 214 212 233 228 238 218 171 166 186 192 223 243 224 232 249 87 109 119 119 96 85 88 87 69 65 60 53 39 35 191 167 174 186 212 212 201 201 216 214 214 229 205 214
181 271 286 225 240 236 218 233 210 117 95 4 241 291 271 233 127 119 117 106 107 100 90 93 87 91 77 63 50 83 53 16 169 208 207 214 225 217 220 227 208 194 110 52
137 274 252 235 210 245 214 179 221 118 63 181 265 358 31 12 20 131 113 114 109 107 94 92 87 94 79 75 62 44 38 52 47 52 51 55 32 19 52 54 60 82 120 139
129 132 296 317 214 202 186 212 191 162 174 196 204 127 318 340 0 47 70 62 69 25 118 121 114 103 100 75 73 62 54 60 57 56 47 40 23 29 46 52 41 44 127 341
217 165 250 277 314 322 302 185 160 122 226 153 149 223 331 27 14 59 44 65 46 31 356 91 98 96 95 88 73 65 49 64 64 65 60 56 51 35 50 61 57 43 56 26
175 179 170 320 356 322 276 200 317 131 111 180 102 261 113 39 28 34 38 43 54 67 307 108 101 100 104 98 96 76 57 42 27 58 41 31 43 46 36 49 34 45 40 42
325 146 174 209 168 263 203 62 33 107 119 152 159 183 170 110 89 79 79 59 44 32 338 298 79 76 71 72 68 64 53 47 43 34 41 33 20 17 24 35 41 40 35 26
340 149 142 177 151 300 75 87 16 321 23 129 165 163 158 139 115 119 112 133 135 117 268 77 70 68 64 65 60 56 46 35 29 29 19 18 23 19 13 12 9 10 14 13
243 111 111 94 190 232 216 217 170 229 136 83 330 207 180 176 122 229 187 185 87 80 90 76 68 66 63 60 59 51 43 30 31 14 356 348 351 336 339 357 21 32 24 18
125 163 189 152 155 199 278 214 191 183 163 102 253 279 191 163 161 160 89 82 87 86 82 79 81 79 71 73 74 56 49 28 17 3 348 349 357 18 20 14 15 11 3 1
248 27 80 106 167 182 138 67 169 183 164 153 162 187 158 138 104 74 61 78 76 76 73 81 91 89 82 85 97 89 63 35 9 354 351 5 14 4 0 2 0 356 354 347
59 352 45 106 158 134 39 20 34 98 33 74 96 88 98 100 82 51 66 70 76 64 60 71 72 77 61 40 80 87 65 50 26 358 358 8 2 357 359 355 337 321 324 332
71 18 102 57 80 94 187 30 6 73 66 15 79 88 98 127 101 155 108 94 76 65 48 47 32 27 46 21 48 54 36 34 3 15 359 357 3 359 340 345 2 353 349 335
67 24 70 39 91 70 89 36 336 75 162 66 59 66 65 79 136 155 117 113 128 145 162 125 250 262 6 57 60 42 20 349 349 10 1 4 28 16 26 2 359 350 346 339
129 114 196 20 83 121 333 31 64 134 75 75 57 42 76 90 126 136 120 106 94 74 46 34 55 52 48 37 42 28 19 5 15 21 42 34 24 13 7 4 342 340 333 329
108 152 163 136 170 104 72 108 108 114 115 97 91 65 53 41 45 50 48 51 46 51 53 41 36 33 30 25 32 45 19 25 23 26 22 16 10 2 3 344 338 323 317 314
69 61 106 80 36 91 105 94 94 90 87 97 90 62 54 43 28 33 46 32 43 47 47 35 31 22 13 24 26 42 33 29 25 10 359 353 348 339 344 322 312 308 314 307
182 93 151 89 118 76 75 107 116 90 61 55 53 48 39 34 29 27 25 46 48 45 33 30 30 22 11 13 36 27 31 26 11 350 330 326 330 321 311 305 305 296 288 279
25 25 40 104 118 106 62 46 80 79 74 58 49 38 50 45 31 24 25 48 48 25 28 28 19 13 21 29 14 12 14 9 349 331 327 313 309 305 306 298 292 274 263 274